sat.trackr.live / text

‹ back to catalog

YUNHAI-1 04

NORAD 58073 · 2023-159A

PAYLOAD ACTIVE UNKNOWN

§ Identity

Operator
Country
PRC
Launch date
2023-10-15
Launch site
JSC
Launch vehicle
Mass (kg)
RCS (m²)

External: N2YO · Heavens-Above · Gunter

§ Orbital elements

Epoch: 2026-05-25T04:12:42.264288Z

Period
100.51 min
Inclination
98.4987°
Eccentricity
0.0000286
Mean motion
14.32713046 rev/d
Perigee alt
782.5 km
Apogee alt
782.9 km
Semi-major
7,160.8 km
B*
1.2030e-4
RAAN
171.3594°
Arg perigee
124.5123°
Mean anomaly
235.6088°
Rev number
13,650

§ Raw data

YUNHAI-1 041 58073U 23159A   26145.17548917  .00000284  00000+0  12030-3 0  99952 58073  98.4987 171.3594 0000286 124.5123 235.6088 14.32713046136502

JSON: /api/v1/satellites/58073 · /tle

For live sub-satellite position, see the globe view (requires WebGL).

§ Visibility from observer

Set your observer location to see the next 7 days of passes ≥ 10°. The values pass through the URL so the page stays shareable.

No JS? Fill the form by hand. The geolocation button needs JavaScript.